Time,TemperatureF,DewpointF,PressureIn,WindDirection,WindDirectionDegrees,WindSpeedMPH,WindSpeedGustMPH,Humidity,HourlyPrecipIn,Conditions,Clouds,dailyrainin,SoftwareType,DateUTC
2013-02-16 00:00:00,64.5,63.9,29.95,NNE,27,0.0,0.0,98,0.00,CLR,,0.61,WeatherDisplay:10.37,2013-02-16 05:00:00,
2013-02-16 00:05:00,64.5,63.9,29.94,NNE,27,0.1,1.1,98,0.00,RA,,0.00,WeatherDisplay:10.37,2013-02-16 05:05:00,
2013-02-16 00:10:00,64.5,63.9,29.95,NNE,27,0.5,1.1,98,0.00,CLR,,0.00,WeatherDisplay:10.37,2013-02-16 05:10:00,
2013-02-16 00:15:00,64.5,63.9,29.94,NNE,27,0.0,0.0,98,0.00,CLR,,0.00,WeatherDisplay:10.37,2013-02-16 05:15:00,
2013-02-16 00:20:00,64.5,63.9,29.94,NNE,27,0.0,0.0,98,0.00,CLR,,0.00,WeatherDisplay:10.37,2013-02-16 05:20:00,
2013-02-16 00:23:00,64.4,63.8,29.94,NNE,27,0.2,1.1,98,0.00,CLR,,0.00,WeatherDisplay:10.37,2013-02-16 05:23:00,
2013-02-16 00:28:00,64.4,63.8,29.94,NNE,27,0.1,0.0,98,0.00,CLR,,0.00,WeatherDisplay:10.37,2013-02-16 05:28:00,
2013-02-16 00:33:00,64.4,63.8,29.94,NNE,27,0.9,1.0,98,0.00,CLR,,0.00,WeatherDisplay:10.37,2013-02-16 05:33:00,
2013-02-16 00:38:00,64.5,63.9,29.94,NNE,27,1.9,2.3,98,0.00,CLR,,0.00,WeatherDisplay:10.37,2013-02-16 05:38:00,
2013-02-16 00:43:00,64.5,63.9,29.94,NNE,27,0.2,0.0,98,0.00,CLR,,0.00,WeatherDisplay:10.37,2013-02-16 05:43:00,
2013-02-16 00:48:00,64.6,64.0,29.94,NNE,27,0.9,1.1,98,0.00,CLR,,0.00,WeatherDisplay:10.37,2013-02-16 05:48:00,
2013-02-16 00:53:00,64.6,64.0,29.94,WNW,290,2.5,3.5,98,0.00,CLR,,0.00,WeatherDisplay:10.37,2013-02-16 05:53:00,
2013-02-16 00:58:00,64.6,64.0,29.93,WNW,285,0.6,3.5,98,0.00,CLR,,0.00,WeatherDisplay:10.37,2013-02-16 05:58:00,
2013-02-16 01:03:00,64.6,64.0,29.93,WNW,285,0.5,1.1,98,0.00,CLR,,0.00,WeatherDisplay:10.37,2013-02-16 06:03:00,
2013-02-16 01:08:00,64.5,63.9,29.93,WNW,285,0.0,0.0,98,0.00,CLR,,0.00,WeatherDisplay:10.37,2013-02-16 06:08:00,
2013-02-16 01:13:00,64.4,63.8,29.93,WNW,300,2.1,3.5,98,0.00,CLR,,0.00,WeatherDisplay:10.37,2013-02-16 06:13:00,
2013-02-16 01:18:00,64.4,63.8,29.94,WNW,291,2.1,3.5,98,0.00,CLR,,0.00,WeatherDisplay:10.37,2013-02-16 06:18:00,
2013-02-16 01:23:00,64.4,63.8,29.93,West,275,1.4,3.5,98,0.00,CLR,,0.00,WeatherDisplay:10.37,2013-02-16 06:23:00,
2013-02-16 01:28:00,64.4,63.8,29.93,WNW,292,0.6,2.3,98,0.00,CLR,,0.00,WeatherDisplay:10.37,2013-02-16 06:28:00,
2013-02-16 01:33:00,64.3,63.7,29.93,NW,311,3.9,3.9,98,0.00,CLR,,0.00,WeatherDisplay:10.37,2013-02-16 06:33:00,
2013-02-16 01:38:00,64.2,63.6,29.93,WNW,292,1.8,3.5,98,0.00,CLR,,0.00,WeatherDisplay:10.37,2013-02-16 06:38:00,
2013-02-16 01:43:00,64.1,63.5,29.93,NW,306,3.2,4.6,98,0.00,CLR,,0.00,WeatherDisplay:10.37,2013-02-16 06:43:00,
2013-02-16 01:48:00,64.1,63.5,29.93,WNW,303,2.5,5.8,98,0.00,CLR,,0.00,WeatherDisplay:10.37,2013-02-16 06:48:00,
2013-02-16 01:53:00,64.0,63.4,29.93,WNW,299,4.9,5.8,98,0.00,CLR,,0.00,WeatherDisplay:10.37,2013-02-16 06:53:00,
2013-02-16 01:58:00,64.0,63.4,29.93,West,275,2.2,6.9,98,0.00,CLR,,0.00,WeatherDisplay:10.37,2013-02-16 06:58:00,
2013-02-16 02:03:00,64.0,63.4,29.93,NW,323,2.8,5.8,98,0.00,CLR,,0.00,WeatherDisplay:10.37,2013-02-16 07:03:00,
2013-02-16 02:08:00,64.0,63.4,29.92,NW,317,5.0,5.8,98,0.00,CLR,,0.00,WeatherDisplay:10.37,2013-02-16 07:08:00,
2013-02-16 02:13:00,63.9,63.3,29.92,NW,317,0.2,2.3,98,0.00,CLR,,0.00,WeatherDisplay:10.37,2013-02-16 07:13:00,
2013-02-16 02:18:00,64.0,63.4,29.92,NW,313,1.1,2.3,98,0.00,CLR,,0.00,WeatherDisplay:10.37,2013-02-16 07:18:00,
2013-02-16 02:23:00,63.9,63.3,29.92,NW,312,3.4,3.5,98,0.00,CLR,,0.00,WeatherDisplay:10.37,2013-02-16 07:23:00,
2013-02-16 02:28:00,63.8,63.2,29.92,NW,316,0.3,3.5,98,0.00,CLR,,0.00,WeatherDisplay:10.37,2013-02-16 07:28:00,
2013-02-16 02:33:00,63.6,63.0,29.91,NNW,333,3.9,5.8,98,0.00,CLR,,0.00,WeatherDisplay:10.37,2013-02-16 07:33:00,
2013-02-16 02:38:00,63.5,62.9,29.90,NW,321,3.2,3.5,98,0.00,CLR,,0.00,WeatherDisplay:10.37,2013-02-16 07:38:00,
2013-02-16 02:43:00,63.4,62.8,29.90,NW,308,2.6,3.5,98,0.00,CLR,,0.00,WeatherDisplay:10.37,2013-02-16 07:43:00,
2013-02-16 02:48:00,63.3,62.7,29.90,WNW,292,1.6,3.5,98,0.00,CLR,,0.00,WeatherDisplay:10.37,2013-02-16 07:48:00,
2013-02-16 02:53:00,63.3,62.7,29.90,North,350,1.4,3.5,98,0.00,CLR,,0.00,WeatherDisplay:10.37,2013-02-16 07:53:00,
2013-02-16 02:58:00,63.3,62.7,29.90,NW,315,0.6,2.3,98,0.00,CLR,,0.00,WeatherDisplay:10.37,2013-02-16 07:58:00,
2013-02-16 03:03:00,63.2,62.3,29.90,NW,315,0.1,0.0,97,0.00,CLR,,0.00,WeatherDisplay:10.37,2013-02-16 08:03:00,
2013-02-16 03:08:00,63.2,62.6,29.90,WNW,294,1.4,3.5,98,0.00,CLR,,0.00,WeatherDisplay:10.37,2013-02-16 08:08:00,
2013-02-16 03:13:00,63.2,62.3,29.91,West,279,0.7,2.3,97,0.00,CLR,,0.00,WeatherDisplay:10.37,2013-02-16 08:13:00,
2013-02-16 03:18:00,63.1,62.2,29.91,West,271,0.8,3.5,97,0.00,CLR,,0.00,WeatherDisplay:10.37,2013-02-16 08:18:00,
2013-02-16 03:24:00,63.0,62.1,29.90,NW,309,0.4,3.5,97,0.00,CLR,,0.00,WeatherDisplay:10.37,2013-02-16 08:24:00,
2013-02-16 03:29:00,63.0,62.4,29.90,NW,308,0.3,1.1,98,0.00,CLR,,0.00,WeatherDisplay:10.37,2013-02-16 08:29:00,
2013-02-16 03:34:00,62.9,62.3,29.89,NW,308,0.8,2.3,98,0.00,CLR,,0.00,WeatherDisplay:10.37,2013-02-16 08:34:00,
2013-02-16 03:39:00,62.9,62.3,29.89,NW,315,0.2,1.1,98,0.00,CLR,,0.00,WeatherDisplay:10.37,2013-02-16 08:39:00,
2013-02-16 03:44:00,63.0,62.4,29.90,NW,315,1.1,2.3,98,0.00,CLR,,0.00,WeatherDisplay:10.37,2013-02-16 08:44:00,
2013-02-16 03:49:00,63.0,62.4,29.89,NW,306,2.3,3.5,98,0.00,CLR,,0.00,WeatherDisplay:10.37,2013-02-16 08:49:00,
2013-02-16 03:54:00,63.0,62.4,29.89,NW,308,0.0,0.0,98,0.00,CLR,,0.00,WeatherDisplay:10.37,2013-02-16 08:54:00,
2013-02-16 03:59:00,62.9,62.3,29.89,NW,311,0.8,3.0,98,0.00,CLR,,0.00,WeatherDisplay:10.37,2013-02-16 08:59:00,
2013-02-16 04:04:00,62.9,62.3,29.89,NW,309,0.0,1.1,98,0.00,CLR,,0.00,WeatherDisplay:10.37,2013-02-16 09:04:00,
2013-02-16 04:09:00,62.8,62.2,29.89,NW,309,0.0,0.0,98,0.00,CLR,,0.00,WeatherDisplay:10.37,2013-02-16 09:09:00,
2013-02-16 04:14:00,62.8,62.2,29.88,NW,309,0.3,2.3,98,0.00,CLR,,0.00,WeatherDisplay:10.37,2013-02-16 09:14:00,
2013-02-16 04:19:00,62.8,62.2,29.88,NW,309,1.1,2.3,98,0.00,CLR,,0.00,WeatherDisplay:10.37,2013-02-16 09:19:00,
2013-02-16 04:24:00,62.9,62.3,29.88,NW,309,0.7,1.1,98,0.00,CLR,,0.00,WeatherDisplay:10.37,2013-02-16 09:24:00,
2013-02-16 04:29:00,62.9,62.3,29.88,NW,311,1.1,3.5,98,0.00,CLR,,0.00,WeatherDisplay:10.37,2013-02-16 09:29:00,
2013-02-16 04:34:00,62.8,62.2,29.89,WNW,292,0.0,1.1,98,0.00,CLR,,0.00,WeatherDisplay:10.37,2013-02-16 09:34:00,
2013-02-16 04:39:00,62.9,62.3,29.88,WNW,292,1.1,2.3,98,0.00,CLR,,0.00,WeatherDisplay:10.37,2013-02-16 09:39:00,
2013-02-16 04:44:00,62.9,62.3,29.89,WNW,292,0.8,2.3,98,0.00,CLR,,0.00,WeatherDisplay:10.37,2013-02-16 09:44:00,
2013-02-16 04:49:00,62.9,62.3,29.89,West,278,0.7,2.3,98,0.00,CLR,,0.00,WeatherDisplay:10.37,2013-02-16 09:49:00,
2013-02-16 04:54:00,62.9,62.3,29.89,West,278,0.0,0.0,98,0.00,CLR,,0.00,WeatherDisplay:10.37,2013-02-16 09:54:00,
2013-02-16 04:59:00,62.9,62.0,29.89,West,278,0.0,0.0,97,0.00,CLR,,0.00,WeatherDisplay:10.37,2013-02-16 09:59:00,
2013-02-16 05:04:00,62.9,62.3,29.89,West,278,0.0,0.0,98,0.00,CLR,,0.00,WeatherDisplay:10.37,2013-02-16 10:04:00,
2013-02-16 05:09:00,62.9,62.3,29.88,West,278,0.1,1.1,98,0.00,CLR,,0.00,WeatherDisplay:10.37,2013-02-16 10:09:00,
2013-02-16 05:14:00,62.9,62.3,29.88,WNW,296,0.0,0.0,98,0.00,CLR,,0.00,WeatherDisplay:10.37,2013-02-16 10:14:00,
2013-02-16 05:19:00,62.9,62.3,29.88,NW,306,2.2,3.5,98,0.00,CLR,,0.00,WeatherDisplay:10.37,2013-02-16 10:19:00,
2013-02-16 05:24:00,62.8,61.9,29.88,NW,306,1.2,1.2,97,0.00,CLR,,0.00,WeatherDisplay:10.37,2013-02-16 10:24:00,
2013-02-16 05:29:00,62.8,61.9,29.89,NW,306,0.0,1.0,97,0.00,CLR,,0.00,WeatherDisplay:10.37,2013-02-16 10:29:00,
2013-02-16 05:34:00,62.8,61.9,29.89,NW,306,0.0,3.5,97,0.00,CLR,,0.00,WeatherDisplay:10.37,2013-02-16 10:34:00,
2013-02-16 05:39:00,62.8,62.2,29.89,NW,306,0.3,1.1,98,0.00,CLR,,0.00,WeatherDisplay:10.37,2013-02-16 10:39:00,
2013-02-16 05:44:00,62.8,62.2,29.90,NW,306,0.0,0.0,98,0.00,CLR,,0.00,WeatherDisplay:10.37,2013-02-16 10:44:00,
2013-02-16 05:49:00,62.9,62.3,29.90,NW,306,0.0,1.1,98,0.01,RA,,0.01,WeatherDisplay:10.37,2013-02-16 10:49:00,
2013-02-16 05:54:00,63.0,62.4,29.89,NW,306,0.0,0.0,98,0.01,RA,,0.01,WeatherDisplay:10.37,2013-02-16 10:54:00,
2013-02-16 05:59:00,63.0,62.1,29.89,NW,306,0.0,0.0,97,0.01,CLR,,0.01,WeatherDisplay:10.37,2013-02-16 10:59:00,
2013-02-16 06:04:00,63.0,62.1,29.89,NW,306,0.4,0.0,97,0.01,CLR,,0.01,WeatherDisplay:10.37,2013-02-16 11:04:00,
2013-02-16 06:09:00,63.0,62.1,29.88,NW,306,0.5,1.1,97,0.01,CLR,,0.01,WeatherDisplay:10.37,2013-02-16 11:09:00,
2013-02-16 06:14:00,63.0,62.1,29.89,NW,306,1.0,0.0,97,0.01,CLR,,0.01,WeatherDisplay:10.37,2013-02-16 11:14:00,
2013-02-16 06:19:00,62.9,62.0,29.89,NW,306,0.1,1.1,97,0.01,CLR,,0.01,WeatherDisplay:10.37,2013-02-16 11:19:00,
2013-02-16 06:24:00,63.0,62.1,29.89,NW,307,2.3,3.5,97,0.01,CLR,,0.01,WeatherDisplay:10.37,2013-02-16 11:24:00,
2013-02-16 06:29:00,63.0,62.1,29.89,NW,307,1.5,3.5,97,0.01,CLR,,0.01,WeatherDisplay:10.37,2013-02-16 11:29:00,
2013-02-16 06:34:00,63.0,62.1,29.90,WNW,301,1.8,3.5,97,0.01,CLR,,0.01,WeatherDisplay:10.37,2013-02-16 11:34:00,
2013-02-16 06:39:00,63.0,62.1,29.90,WNW,290,2.2,3.5,97,0.01,CLR,,0.01,WeatherDisplay:10.37,2013-02-16 11:39:00,
2013-02-16 06:44:00,63.1,62.2,29.90,WNW,291,0.7,2.3,97,0.01,CLR,,0.01,WeatherDisplay:10.37,2013-02-16 11:44:00,
2013-02-16 06:49:00,63.1,62.2,29.91,West,281,0.0,0.0,97,0.00,CLR,,0.01,WeatherDisplay:10.37,2013-02-16 11:49:00,
2013-02-16 06:54:00,63.2,62.3,29.91,WNW,292,2.9,4.6,97,0.00,CLR,,0.01,WeatherDisplay:10.37,2013-02-16 11:54:00,
2013-02-16 06:59:00,63.2,62.3,29.91,WNW,284,1.4,3.5,97,0.00,CLR,,0.01,WeatherDisplay:10.37,2013-02-16 11:59:00,
2013-02-16 07:04:00,63.3,62.4,29.91,WNW,303,2.7,5.8,97,0.00,CLR,,0.01,WeatherDisplay:10.37,2013-02-16 12:04:00,
2013-02-16 07:09:00,63.3,62.7,29.91,WNW,290,1.0,2.3,98,0.00,CLR,,0.01,WeatherDisplay:10.37,2013-02-16 12:09:00,
2013-02-16 07:14:00,63.3,62.7,29.91,WNW,288,1.9,3.5,98,0.00,CLR,,0.01,WeatherDisplay:10.37,2013-02-16 12:14:00,
2013-02-16 07:19:00,63.4,62.8,29.91,WNW,292,0.2,1.1,98,0.00,CLR,,0.01,WeatherDisplay:10.37,2013-02-16 12:19:00,
2013-02-16 07:24:00,63.4,62.8,29.91,WNW,299,3.8,8.1,98,0.00,CLR,,0.01,WeatherDisplay:10.37,2013-02-16 12:24:00,
2013-02-16 07:29:00,63.4,62.8,29.91,NW,308,2.8,5.8,98,0.00,CLR,,0.01,WeatherDisplay:10.37,2013-02-16 12:29:00,
2013-02-16 07:34:00,63.4,62.8,29.91,WNW,284,2.4,3.5,98,0.00,CLR,,0.01,WeatherDisplay:10.37,2013-02-16 12:34:00,
2013-02-16 07:39:00,63.5,62.9,29.91,West,281,1.4,3.5,98,0.00,CLR,,0.01,WeatherDisplay:10.37,2013-02-16 12:39:00,
2013-02-16 07:44:00,63.5,62.9,29.91,WNW,294,0.5,2.3,98,0.00,CLR,,0.01,WeatherDisplay:10.37,2013-02-16 12:44:00,
2013-02-16 07:49:00,63.5,62.9,29.91,WNW,299,2.6,4.6,98,0.00,CLR,,0.01,WeatherDisplay:10.37,2013-02-16 12:49:00,
2013-02-16 07:54:00,63.5,62.6,29.91,WNW,289,0.7,3.5,97,0.00,CLR,,0.01,WeatherDisplay:10.37,2013-02-16 12:54:00,
2013-02-16 07:59:00,63.5,62.6,29.91,WNW,302,3.6,4.6,97,0.00,CLR,,0.01,WeatherDisplay:10.37,2013-02-16 12:59:00,
2013-02-16 08:04:00,63.5,62.6,29.91,WNW,303,2.8,4.6,97,0.00,CLR,,0.01,WeatherDisplay:10.37,2013-02-16 13:04:00,
2013-02-16 08:09:00,63.4,62.5,29.92,NW,315,1.8,4.6,97,0.00,CLR,,0.01,WeatherDisplay:10.37,2013-02-16 13:09:00,
2013-02-16 08:14:00,63.5,62.6,29.92,NW,306,0.4,2.3,97,0.00,CLR,,0.01,WeatherDisplay:10.37,2013-02-16 13:14:00,
2013-02-16 08:19:00,63.5,62.6,29.92,NW,306,2.2,3.5,97,0.00,CLR,,0.01,WeatherDisplay:10.37,2013-02-16 13:19:00,
2013-02-16 08:24:00,63.5,62.6,29.92,WNW,294,1.1,3.5,97,0.00,CLR,,0.01,WeatherDisplay:10.37,2013-02-16 13:24:00,
2013-02-16 08:29:00,63.5,62.6,29.92,NW,309,2.7,3.5,97,0.00,CLR,,0.01,WeatherDisplay:10.37,2013-02-16 13:29:00,
2013-02-16 08:34:00,63.6,62.7,29.92,WNW,294,1.2,5.8,97,0.00,CLR,,0.01,WeatherDisplay:10.37,2013-02-16 13:34:00,
2013-02-16 08:39:00,63.6,62.4,29.92,WNW,287,3.0,3.5,96,0.00,CLR,,0.01,WeatherDisplay:10.37,2013-02-16 13:39:00,
2013-02-16 08:44:00,63.6,62.4,29.92,WNW,295,1.9,3.5,96,0.00,CLR,,0.01,WeatherDisplay:10.37,2013-02-16 13:44:00,
2013-02-16 08:49:00,63.7,62.5,29.92,WNW,301,3.2,6.9,96,0.00,CLR,,0.01,WeatherDisplay:10.37,2013-02-16 13:49:00,
2013-02-16 08:54:00,63.8,62.6,29.92,NW,309,3.0,3.5,96,0.00,CLR,,0.01,WeatherDisplay:10.37,2013-02-16 13:54:00,
2013-02-16 08:59:00,64.0,62.8,29.92,NW,321,3.5,5.8,96,0.00,CLR,,0.01,WeatherDisplay:10.37,2013-02-16 13:59:00,
2013-02-16 09:04:00,64.0,62.5,29.92,WNW,293,3.3,5.8,95,0.00,CLR,,0.01,WeatherDisplay:10.37,2013-02-16 14:04:00,
2013-02-16 09:09:00,64.1,62.6,29.92,NW,313,3.1,5.8,95,0.00,CLR,,0.01,WeatherDisplay:10.37,2013-02-16 14:09:00,
2013-02-16 09:14:00,64.2,62.7,29.92,NW,305,3.9,7.0,95,0.00,CLR,,0.01,WeatherDisplay:10.37,2013-02-16 14:14:00,
2013-02-16 09:19:00,64.3,62.8,29.93,West,265,2.0,3.5,95,0.00,CLR,,0.01,WeatherDisplay:10.37,2013-02-16 14:19:00,
2013-02-16 09:24:00,64.5,62.7,29.93,WNW,288,2.2,3.5,94,0.00,CLR,,0.01,WeatherDisplay:10.37,2013-02-16 14:24:00,
2013-02-16 09:29:00,64.8,63.0,29.93,NNW,329,5.9,8.1,94,0.00,CLR,,0.01,WeatherDisplay:10.37,2013-02-16 14:29:00,
2013-02-16 09:35:00,65.0,62.9,29.93,West,261,1.2,3.5,93,0.00,CLR,,0.01,WeatherDisplay:10.37,2013-02-16 14:35:00,
2013-02-16 09:40:00,65.3,63.2,29.93,NNW,331,6.5,9.2,93,0.00,CLR,,0.01,WeatherDisplay:10.37,2013-02-16 14:40:00,
2013-02-16 09:45:00,65.6,63.2,29.94,WNW,297,1.0,1.1,92,0.00,CLR,,0.01,WeatherDisplay:10.37,2013-02-16 14:45:00,
2013-02-16 09:50:00,65.8,63.1,29.94,WNW,300,5.3,8.1,91,0.00,CLR,,0.01,WeatherDisplay:10.37,2013-02-16 14:50:00,
2013-02-16 09:55:00,66.1,63.4,29.94,NW,325,5.2,8.1,91,0.00,CLR,,0.01,WeatherDisplay:10.37,2013-02-16 14:55:00,
2013-02-16 10:00:00,66.4,63.7,29.94,NW,311,3.7,5.8,91,0.00,CLR,,0.01,WeatherDisplay:10.37,2013-02-16 15:00:00,
2013-02-16 10:05:00,66.5,62.8,29.94,NW,322,3.8,8.1,88,0.00,CLR,,0.01,WeatherDisplay:10.37,2013-02-16 15:05:00,
2013-02-16 10:10:00,66.5,63.2,29.94,WNW,296,1.4,5.8,89,0.00,CLR,,0.01,WeatherDisplay:10.37,2013-02-16 15:10:00,
2013-02-16 10:15:00,66.6,63.3,29.94,NW,304,1.9,3.5,89,0.00,CLR,,0.01,WeatherDisplay:10.37,2013-02-16 15:15:00,
2013-02-16 10:20:00,66.7,63.0,29.94,WNW,296,3.0,5.8,88,0.00,CLR,,0.01,WeatherDisplay:10.37,2013-02-16 15:20:00,
2013-02-16 10:25:00,66.8,63.1,29.94,NW,309,2.1,5.8,88,0.00,CLR,,0.01,WeatherDisplay:10.37,2013-02-16 15:25:00,
2013-02-16 10:30:00,67.0,63.0,29.94,NW,307,1.1,3.5,87,0.00,CLR,,0.01,WeatherDisplay:10.37,2013-02-16 15:30:00,
2013-02-16 10:35:00,67.2,62.9,29.94,NW,305,0.7,6.9,86,0.00,CLR,,0.01,WeatherDisplay:10.37,2013-02-16 15:35:00,
2013-02-16 10:40:00,67.4,63.4,29.94,West,277,1.7,8.1,87,0.00,CLR,,0.01,WeatherDisplay:10.37,2013-02-16 15:40:00,
2013-02-16 10:45:00,67.8,63.5,29.94,NNW,348,5.0,6.9,86,0.00,CLR,,0.01,WeatherDisplay:10.37,2013-02-16 15:45:00,
2013-02-16 10:50:00,68.1,63.8,29.94,NW,313,6.4,8.1,86,0.00,CLR,,0.01,WeatherDisplay:10.37,2013-02-16 15:50:00,
2013-02-16 10:55:00,68.7,63.7,29.94,West,277,2.8,8.1,84,0.00,CLR,,0.01,WeatherDisplay:10.37,2013-02-16 15:55:00,
2013-02-16 11:00:00,69.6,64.5,29.95,WSW,244,4.9,6.9,84,0.00,CLR,,0.01,WeatherDisplay:10.37,2013-02-16 16:00:00,
2013-02-16 11:05:00,69.8,64.1,29.95,WNW,292,5.7,9.2,82,0.00,CLR,,0.01,WeatherDisplay:10.37,2013-02-16 16:05:00,
2013-02-16 11:10:00,69.8,63.7,29.95,West,269,6.6,12.7,81,0.00,CLR,,0.01,WeatherDisplay:10.37,2013-02-16 16:10:00,
2013-02-16 11:15:00,70.1,64.3,29.94,WNW,289,5.2,5.8,82,0.00,CLR,,0.01,WeatherDisplay:10.37,2013-02-16 16:15:00,
2013-02-16 11:20:00,70.4,63.9,29.94,NW,310,6.0,9.0,80,0.00,CLR,,0.01,WeatherDisplay:10.37,2013-02-16 16:20:00,
2013-02-16 11:25:00,70.3,64.2,29.94,West,276,4.5,8.0,81,0.00,CLR,,0.01,WeatherDisplay:10.37,2013-02-16 16:25:00,
2013-02-16 11:30:00,70.2,63.4,29.94,WNW,295,5.9,10.4,79,0.00,CLR,,0.01,WeatherDisplay:10.37,2013-02-16 16:30:00,
2013-02-16 11:35:00,70.4,63.6,29.94,West,275,4.1,10.4,79,0.00,CLR,,0.01,WeatherDisplay:10.37,2013-02-16 16:35:00,
2013-02-16 11:40:00,70.7,63.9,29.94,WNW,290,4.3,6.9,79,0.00,CLR,,0.01,WeatherDisplay:10.37,2013-02-16 16:40:00,
2013-02-16 11:45:00,70.8,63.6,29.93,SW,229,4.2,11.5,78,0.00,CLR,,0.01,WeatherDisplay:10.37,2013-02-16 16:45:00,
2013-02-16 11:50:00,71.2,64.0,29.93,WNW,286,5.7,5.7,78,0.00,CLR,,0.01,WeatherDisplay:10.37,2013-02-16 16:50:00,
2013-02-16 11:55:00,71.6,63.6,29.93,West,275,4.7,10.4,76,0.00,CLR,,0.01,WeatherDisplay:10.37,2013-02-16 16:55:00,
2013-02-16 12:00:00,71.9,63.9,29.93,West,278,7.2,10.4,76,0.00,CLR,,0.01,WeatherDisplay:10.37,2013-02-16 17:00:00,
2013-02-16 12:05:00,72.2,63.4,29.93,WSW,237,7.4,11.5,74,0.00,CLR,,0.01,WeatherDisplay:10.37,2013-02-16 17:05:00,
2013-02-16 12:10:00,72.4,64.0,29.92,WNW,293,6.7,9.2,75,0.00,CLR,,0.01,WeatherDisplay:10.37,2013-02-16 17:10:00,
2013-02-16 12:15:00,72.5,63.0,29.92,SW,236,8.2,12.7,72,0.00,CLR,,0.01,WeatherDisplay:10.37,2013-02-16 17:15:00,
2013-02-16 12:20:00,72.6,63.8,29.92,WNW,295,5.9,10.4,74,0.00,CLR,,0.01,WeatherDisplay:10.37,2013-02-16 17:20:00,
2013-02-16 12:25:00,72.6,62.3,29.92,WSW,255,7.0,13.8,70,0.00,CLR,,0.01,WeatherDisplay:10.37,2013-02-16 17:25:00,
2013-02-16 12:30:00,72.4,62.1,29.92,West,271,8.1,10.4,70,0.00,CLR,,0.01,WeatherDisplay:10.37,2013-02-16 17:30:00,
2013-02-16 12:35:00,72.6,62.3,29.92,West,267,4.7,9.2,70,0.00,CLR,,0.01,WeatherDisplay:10.37,2013-02-16 17:35:00,
2013-02-16 12:40:00,72.9,62.1,29.92,West,280,5.1,5.8,69,0.00,CLR,,0.01,WeatherDisplay:10.37,2013-02-16 17:40:00,
2013-02-16 12:45:00,73.0,62.6,29.91,West,261,5.7,11.5,70,0.00,CLR,,0.01,WeatherDisplay:10.37,2013-02-16 17:45:00,
2013-02-16 12:50:00,72.6,61.0,29.91,WNW,289,4.5,10.4,67,0.00,CLR,,0.01,WeatherDisplay:10.37,2013-02-16 17:50:00,
2013-02-16 12:55:00,72.6,61.4,29.91,SW,236,4.6,11.5,68,0.00,CLR,,0.01,WeatherDisplay:10.37,2013-02-16 17:55:00,
2013-02-16 13:00:00,72.6,61.8,29.91,WNW,298,2.6,3.5,69,0.00,CLR,,0.01,WeatherDisplay:10.37,2013-02-16 18:00:00,
2013-02-16 13:05:00,72.6,58.8,29.91,NW,310,5.7,9.2,62,0.00,CLR,,0.01,WeatherDisplay:10.37,2013-02-16 18:05:00,
2013-02-16 13:10:00,72.7,58.0,29.90,NW,321,6.1,9.2,60,0.00,CLR,,0.01,WeatherDisplay:10.37,2013-02-16 18:10:00,
2013-02-16 13:15:00,73.0,56.9,29.90,WNW,284,7.7,11.5,57,0.00,CLR,,0.01,WeatherDisplay:10.37,2013-02-16 18:15:00,
2013-02-16 13:20:00,73.2,57.1,29.90,WNW,298,6.1,8.1,57,0.00,CLR,,0.01,WeatherDisplay:10.37,2013-02-16 18:20:00,
2013-02-16 13:25:00,73.8,59.0,29.90,West,269,5.2,10.4,60,0.00,CLR,,0.01,WeatherDisplay:10.37,2013-02-16 18:25:00,
2013-02-16 13:30:00,74.3,56.1,29.89,West,279,9.7,15.0,53,0.00,CLR,,0.01,WeatherDisplay:10.37,2013-02-16 18:30:00,
2013-02-16 13:35:00,74.3,56.6,29.89,WNW,298,12.2,13.8,54,0.00,CLR,,0.01,WeatherDisplay:10.37,2013-02-16 18:35:00,
2013-02-16 13:40:00,74.5,56.8,29.89,WSW,238,5.6,10.4,54,0.00,CLR,,0.01,WeatherDisplay:10.37,2013-02-16 18:40:00,
2013-02-16 13:45:00,74.9,57.6,29.89,WSW,252,8.8,12.0,55,0.00,CLR,,0.01,WeatherDisplay:10.37,2013-02-16 18:45:00,
2013-02-16 13:50:00,74.7,56.4,29.89,West,277,7.1,11.5,53,0.00,CLR,,0.01,WeatherDisplay:10.37,2013-02-16 18:50:00,
2013-02-16 13:55:00,74.4,56.2,29.89,West,275,6.5,9.2,53,0.00,CLR,,0.01,WeatherDisplay:10.37,2013-02-16 18:55:00,
2013-02-16 14:00:00,74.6,54.7,29.89,West,278,8.6,11.5,50,0.00,CLR,,0.01,WeatherDisplay:10.37,2013-02-16 19:00:00,
2013-02-16 14:05:00,74.7,54.8,29.89,WNW,282,12.9,17.3,50,0.00,CLR,,0.01,WeatherDisplay:10.37,2013-02-16 19:05:00,
2013-02-16 14:11:00,74.6,55.3,29.88,WNW,286,7.9,9.2,51,0.00,CLR,,0.01,WeatherDisplay:10.37,2013-02-16 19:11:00,
2013-02-16 14:16:00,74.6,53.6,29.89,West,273,7.5,19.6,48,0.00,CLR,,0.01,WeatherDisplay:10.37,2013-02-16 19:16:00,
2013-02-16 14:21:00,74.6,52.4,29.89,WNW,288,6.3,11.5,46,0.00,CLR,,0.01,WeatherDisplay:10.37,2013-02-16 19:21:00,
2013-02-16 14:26:00,73.8,53.4,29.89,WNW,299,7.7,11.5,49,0.00,CLR,,0.01,WeatherDisplay:10.37,2013-02-16 19:26:00,
2013-02-16 14:31:00,73.5,54.3,29.89,NW,310,5.0,9.2,51,0.00,CLR,,0.01,WeatherDisplay:10.37,2013-02-16 19:31:00,
2013-02-16 14:36:00,73.8,53.4,29.89,NW,307,6.1,6.9,49,0.00,CLR,,0.01,WeatherDisplay:10.37,2013-02-16 19:36:00,
2013-02-16 14:41:00,73.8,52.3,29.89,WNW,294,9.0,13.8,47,0.00,CLR,,0.01,WeatherDisplay:10.37,2013-02-16 19:41:00,
2013-02-16 14:46:00,73.4,53.1,29.89,NW,313,7.1,8.1,49,0.00,CLR,,0.01,WeatherDisplay:10.37,2013-02-16 19:46:00,
2013-02-16 14:51:00,73.1,52.2,29.89,WNW,292,6.8,12.0,48,0.00,CLR,,0.01,WeatherDisplay:10.37,2013-02-16 19:51:00,
2013-02-16 14:56:00,72.6,51.2,29.89,West,266,8.9,11.5,47,0.00,CLR,,0.01,WeatherDisplay:10.37,2013-02-16 19:56:00,
2013-02-16 15:01:00,72.1,50.2,29.89,WSW,258,8.4,16.1,46,0.00,CLR,,0.01,WeatherDisplay:10.37,2013-02-16 20:01:00,
2013-02-16 15:06:00,72.1,49.0,29.89,WNW,287,6.8,11.0,44,0.00,CLR,,0.01,WeatherDisplay:10.37,2013-02-16 20:06:00,
2013-02-16 15:11:00,72.4,46.7,29.89,West,265,6.3,6.9,40,0.00,CLR,,0.01,WeatherDisplay:10.37,2013-02-16 20:11:00,
2013-02-16 15:16:00,72.6,47.5,29.89,West,273,9.4,13.8,41,0.00,CLR,,0.01,WeatherDisplay:10.37,2013-02-16 20:16:00,
2013-02-16 15:21:00,72.5,48.1,29.89,WNW,294,6.8,12.7,42,0.00,CLR,,0.01,WeatherDisplay:10.37,2013-02-16 20:21:00,
2013-02-16 15:26:00,72.4,48.6,29.90,West,277,6.1,9.2,43,0.00,CLR,,0.01,WeatherDisplay:10.37,2013-02-16 20:26:00,
2013-02-16 15:31:00,72.6,50.0,29.90,West,265,8.0,10.4,45,0.00,CLR,,0.01,WeatherDisplay:10.37,2013-02-16 20:31:00,
2013-02-16 15:36:00,72.8,49.6,29.90,WNW,288,13.4,18.4,44,0.00,CLR,,0.01,WeatherDisplay:10.37,2013-02-16 20:36:00,
2013-02-16 15:41:00,72.6,49.4,29.90,NNW,332,10.2,11.5,44,0.00,CLR,,0.01,WeatherDisplay:10.37,2013-02-16 20:41:00,
2013-02-16 15:46:00,72.4,50.4,29.90,NW,311,7.5,18.4,46,0.00,CLR,,0.01,WeatherDisplay:10.37,2013-02-16 20:46:00,
2013-02-16 15:51:00,72.3,50.4,29.90,WNW,284,10.6,11.5,46,0.00,CLR,,0.01,WeatherDisplay:10.37,2013-02-16 20:51:00,
2013-02-16 15:56:00,72.3,51.5,29.90,NNW,331,10.6,11.5,48,0.00,CLR,,0.01,WeatherDisplay:10.37,2013-02-16 20:56:00,
2013-02-16 16:01:00,72.1,51.3,29.90,WNW,302,7.0,12.7,48,0.00,CLR,,0.01,WeatherDisplay:10.37,2013-02-16 21:01:00,
2013-02-16 16:06:00,71.8,51.6,29.91,WNW,283,8.3,12.7,49,0.00,CLR,,0.01,WeatherDisplay:10.37,2013-02-16 21:06:00,
2013-02-16 16:11:00,71.3,52.2,29.91,NW,312,6.3,10.4,51,0.00,CLR,,0.01,WeatherDisplay:10.37,2013-02-16 21:11:00,
2013-02-16 16:16:00,71.2,52.7,29.91,WNW,302,7.0,16.1,52,0.00,CLR,,0.01,WeatherDisplay:10.37,2013-02-16 21:16:00,
2013-02-16 16:21:00,71.0,50.3,29.92,NW,318,4.1,9.2,48,0.00,CLR,,0.01,WeatherDisplay:10.37,2013-02-16 21:21:00,
2013-02-16 16:26:00,70.5,51.0,29.92,NW,315,6.0,18.4,50,0.00,CLR,,0.01,WeatherDisplay:10.37,2013-02-16 21:26:00,
2013-02-16 16:31:00,70.3,50.8,29.92,West,273,9.4,16.1,50,0.00,CLR,,0.01,WeatherDisplay:10.37,2013-02-16 21:31:00,
2013-02-16 16:36:00,70.1,51.1,29.92,WNW,300,13.3,16.1,51,0.00,CLR,,0.01,WeatherDisplay:10.37,2013-02-16 21:36:00,
2013-02-16 16:41:00,69.9,50.4,29.92,NW,318,14.1,17.3,50,0.00,CLR,,0.01,WeatherDisplay:10.37,2013-02-16 21:41:00,
2013-02-16 16:46:00,69.6,51.2,29.92,West,266,6.7,17.3,52,0.00,CLR,,0.01,WeatherDisplay:10.37,2013-02-16 21:46:00,
2013-02-16 16:51:00,69.5,51.6,29.92,West,275,7.8,10.4,53,0.00,CLR,,0.01,WeatherDisplay:10.37,2013-02-16 21:51:00,
2013-02-16 16:56:00,69.4,51.0,29.92,WSW,237,4.8,8.1,52,0.00,CLR,,0.01,WeatherDisplay:10.37,2013-02-16 21:56:00,
2013-02-16 17:01:00,69.2,50.8,29.92,WNW,287,6.6,11.5,52,0.00,CLR,,0.01,WeatherDisplay:10.37,2013-02-16 22:01:00,
2013-02-16 17:06:00,68.9,51.1,29.92,West,269,8.7,17.3,53,0.00,CLR,,0.01,WeatherDisplay:10.37,2013-02-16 22:06:00,
2013-02-16 17:11:00,68.6,50.8,29.93,West,271,5.6,9.2,53,0.00,CLR,,0.01,WeatherDisplay:10.37,2013-02-16 22:11:00,
2013-02-16 17:16:00,68.5,50.7,29.93,West,267,6.3,11.5,53,0.00,CLR,,0.01,WeatherDisplay:10.37,2013-02-16 22:16:00,
2013-02-16 17:21:00,68.4,51.1,29.93,West,278,6.0,6.0,54,0.00,CLR,,0.01,WeatherDisplay:10.37,2013-02-16 22:21:00,
2013-02-16 17:26:00,68.1,50.3,29.93,WNW,283,7.9,15.0,53,0.00,CLR,,0.01,WeatherDisplay:10.37,2013-02-16 22:26:00,
2013-02-16 17:31:00,67.9,50.1,29.93,NNW,329,11.1,11.5,53,0.00,CLR,,0.01,WeatherDisplay:10.37,2013-02-16 22:31:00,
2013-02-16 17:36:00,67.7,50.5,29.94,SW,229,5.4,9.2,54,0.00,CLR,,0.01,WeatherDisplay:10.37,2013-02-16 22:36:00,
2013-02-16 17:41:00,67.5,50.8,29.94,WNW,300,5.0,6.9,55,0.00,CLR,,0.01,WeatherDisplay:10.37,2013-02-16 22:41:00,
2013-02-16 17:46:00,67.3,50.6,29.94,West,269,6.3,9.2,55,0.00,CLR,,0.01,WeatherDisplay:10.37,2013-02-16 22:46:00,
2013-02-16 17:51:00,67.2,50.5,29.95,NW,308,5.9,10.4,55,0.00,CLR,,0.01,WeatherDisplay:10.37,2013-02-16 22:51:00,
2013-02-16 17:56:00,67.0,50.3,29.95,West,261,2.1,4.6,55,0.00,CLR,,0.01,WeatherDisplay:10.37,2013-02-16 22:56:00,
2013-02-16 18:01:00,66.8,50.6,29.95,WSW,254,6.3,6.9,56,0.00,CLR,,0.01,WeatherDisplay:10.37,2013-02-16 23:01:00,
2013-02-16 18:06:00,66.7,50.5,29.95,WNW,296,6.6,11.5,56,0.00,CLR,,0.01,WeatherDisplay:10.37,2013-02-16 23:06:00,
2013-02-16 18:11:00,66.5,50.8,29.95,WNW,292,5.0,10.4,57,0.00,CLR,,0.01,WeatherDisplay:10.37,2013-02-16 23:11:00,
2013-02-16 18:16:00,66.3,50.6,29.95,WNW,294,5.3,9.2,57,0.00,CLR,,0.01,WeatherDisplay:10.37,2013-02-16 23:16:00,
2013-02-16 18:21:00,66.2,51.0,29.95,NW,304,3.6,5.8,58,0.00,CLR,,0.01,WeatherDisplay:10.37,2013-02-16 23:21:00,
2013-02-16 18:26:00,66.0,51.3,29.95,NW,312,6.6,13.8,59,0.00,CLR,,0.01,WeatherDisplay:10.37,2013-02-16 23:26:00,
2013-02-16 18:31:00,65.9,51.6,29.95,WNW,292,3.2,8.1,60,0.00,CLR,,0.01,WeatherDisplay:10.37,2013-02-16 23:31:00,
2013-02-16 18:36:00,65.8,52.0,29.96,WSW,246,10.4,16.1,61,0.00,CLR,,0.01,WeatherDisplay:10.37,2013-02-16 23:36:00,
2013-02-16 18:41:00,65.6,51.8,29.96,WNW,299,8.9,13.8,61,0.00,CLR,,0.01,WeatherDisplay:10.37,2013-02-16 23:41:00,
2013-02-16 18:46:00,65.5,52.1,29.96,WNW,288,9.1,16.1,62,0.00,CLR,,0.01,WeatherDisplay:10.37,2013-02-16 23:46:00,
2013-02-16 18:51:00,65.3,52.4,29.96,WNW,284,3.4,8.1,63,0.00,CLR,,0.01,WeatherDisplay:10.37,2013-02-16 23:51:00,
2013-02-16 18:56:00,65.1,52.6,29.96,West,277,3.8,4.6,64,0.00,CLR,,0.01,WeatherDisplay:10.37,2013-02-16 23:56:00,
2013-02-16 19:02:00,64.9,52.8,29.97,West,269,4.3,5.8,65,0.00,CLR,,0.01,WeatherDisplay:10.37,2013-02-17 00:02:00,
2013-02-16 19:07:00,64.6,52.6,29.97,WNW,290,9.4,18.4,65,0.00,CLR,,0.01,WeatherDisplay:10.37,2013-02-17 00:07:00,
2013-02-16 19:12:00,64.3,52.7,29.97,WNW,296,7.5,13.8,66,0.00,CLR,,0.01,WeatherDisplay:10.37,2013-02-17 00:12:00,
2013-02-16 19:17:00,64.1,52.9,29.97,West,267,6.1,12.7,67,0.00,CLR,,0.01,WeatherDisplay:10.37,2013-02-17 00:17:00,
2013-02-16 19:22:00,63.8,52.6,29.97,WNW,294,2.2,6.9,67,0.00,CLR,,0.01,WeatherDisplay:10.37,2013-02-17 00:22:00,
2013-02-16 19:27:00,63.5,51.9,29.98,WSW,253,6.3,10.4,66,0.00,CLR,,0.01,WeatherDisplay:10.37,2013-02-17 00:27:00,
2013-02-16 19:32:00,63.2,52.1,29.98,WNW,285,6.8,10.4,67,0.00,CLR,,0.01,WeatherDisplay:10.37,2013-02-17 00:32:00,
2013-02-16 19:37:00,63.1,52.0,29.98,WNW,293,6.0,11.5,67,0.00,CLR,,0.01,WeatherDisplay:10.37,2013-02-17 00:37:00,
2013-02-16 19:42:00,62.9,52.2,29.99,NW,316,7.1,10.4,68,0.00,CLR,,0.01,WeatherDisplay:10.37,2013-02-17 00:42:00,
2013-02-16 19:47:00,62.7,52.4,29.99,WSW,239,4.0,6.9,69,0.00,CLR,,0.01,WeatherDisplay:10.37,2013-02-17 00:47:00,
2013-02-16 19:52:00,62.4,52.5,29.99,West,281,4.5,12.7,70,0.00,CLR,,0.01,WeatherDisplay:10.37,2013-02-17 00:52:00,
2013-02-16 19:57:00,62.2,52.3,30.00,WNW,291,5.9,13.8,70,0.00,CLR,,0.01,WeatherDisplay:10.37,2013-02-17 00:57:00,
2013-02-16 20:02:00,62.0,52.5,30.00,NW,316,5.0,6.9,71,0.00,CLR,,0.01,WeatherDisplay:10.37,2013-02-17 01:02:00,
2013-02-16 20:07:00,61.8,52.7,30.00,WNW,290,5.5,11.5,72,0.00,CLR,,0.01,WeatherDisplay:10.37,2013-02-17 01:07:00,
2013-02-16 20:12:00,61.6,52.5,30.01,WNW,282,6.6,10.4,72,0.00,CLR,,0.01,WeatherDisplay:10.37,2013-02-17 01:12:00,
2013-02-16 20:17:00,61.4,52.7,30.01,WNW,302,6.4,9.2,73,0.00,CLR,,0.01,WeatherDisplay:10.37,2013-02-17 01:17:00,
2013-02-16 20:22:00,61.3,52.6,30.01,WSW,249,6.3,9.2,73,0.00,CLR,,0.01,WeatherDisplay:10.37,2013-02-17 01:22:00,
2013-02-16 20:27:00,61.1,52.4,30.01,West,262,3.6,15.0,73,0.00,CLR,,0.01,WeatherDisplay:10.37,2013-02-17 01:27:00,
2013-02-16 20:32:00,60.9,52.6,30.02,WNW,288,6.2,11.5,74,0.00,CLR,,0.01,WeatherDisplay:10.37,2013-02-17 01:32:00,
2013-02-16 20:37:00,60.7,52.4,30.02,WNW,293,5.9,9.2,74,0.00,CLR,,0.01,WeatherDisplay:10.37,2013-02-17 01:37:00,
2013-02-16 20:42:00,60.5,52.2,30.03,WNW,290,5.8,8.1,74,0.00,CLR,,0.01,WeatherDisplay:10.37,2013-02-17 01:42:00,
2013-02-16 20:47:00,60.3,52.3,30.03,NW,321,5.7,8.1,75,0.00,CLR,,0.01,WeatherDisplay:10.37,2013-02-17 01:47:00,
2013-02-16 20:52:00,60.2,52.2,30.04,WNW,298,9.6,9.6,75,0.00,CLR,,0.01,WeatherDisplay:10.37,2013-02-17 01:52:00,
2013-02-16 20:57:00,60.0,52.1,30.04,WNW,292,10.3,12.7,75,0.00,CLR,,0.01,WeatherDisplay:10.37,2013-02-17 01:57:00,
2013-02-16 21:02:00,59.8,51.5,30.04,NW,311,11.2,17.3,74,0.00,CLR,,0.01,WeatherDisplay:10.37,2013-02-17 02:02:00,
2013-02-16 21:07:00,59.5,50.8,30.04,West,271,5.9,11.5,73,0.00,CLR,,0.01,WeatherDisplay:10.37,2013-02-17 02:07:00,
2013-02-16 21:12:00,59.2,50.5,30.04,WNW,295,7.7,13.8,73,0.00,CLR,,0.01,WeatherDisplay:10.37,2013-02-17 02:12:00,
2013-02-16 21:17:00,59.0,50.0,30.05,NW,304,6.4,12.7,72,0.00,CLR,,0.01,WeatherDisplay:10.37,2013-02-17 02:17:00,
2013-02-16 21:22:00,58.8,49.8,30.05,NW,305,7.9,14.0,72,0.00,CLR,,0.01,WeatherDisplay:10.37,2013-02-17 02:22:00,
2013-02-16 21:27:00,58.6,50.0,30.05,West,279,4.6,11.5,73,0.00,RA,,0.01,WeatherDisplay:10.37,2013-02-17 02:27:00,
2013-02-16 21:32:00,58.3,49.7,30.05,NW,311,8.6,8.6,73,0.00,RA,,0.01,WeatherDisplay:10.37,2013-02-17 02:32:00,
2013-02-16 21:37:00,58.2,49.6,30.05,WNW,291,5.5,8.1,73,0.00,CLR,,0.01,WeatherDisplay:10.37,2013-02-17 02:37:00,
2013-02-16 21:42:00,58.0,49.0,30.05,WNW,293,11.4,17.3,72,0.00,CLR,,0.01,WeatherDisplay:10.37,2013-02-17 02:42:00,
2013-02-16 21:47:00,57.8,48.8,30.06,NW,323,5.5,10.4,72,0.00,CLR,,0.01,WeatherDisplay:10.37,2013-02-17 02:47:00,
2013-02-16 21:52:00,57.6,48.3,30.06,WNW,299,4.3,8.1,71,0.00,CLR,,0.01,WeatherDisplay:10.37,2013-02-17 02:52:00,
2013-02-16 21:57:00,57.4,48.4,30.06,WNW,297,9.5,13.8,72,0.00,CLR,,0.01,WeatherDisplay:10.37,2013-02-17 02:57:00,
2013-02-16 22:02:00,57.2,48.3,30.06,WNW,302,11.4,12.7,72,0.00,CLR,,0.01,WeatherDisplay:10.37,2013-02-17 03:02:00,
2013-02-16 22:07:00,57.1,48.5,30.06,NW,315,6.4,11.5,73,0.00,CLR,,0.01,WeatherDisplay:10.37,2013-02-17 03:07:00,
2013-02-16 22:12:00,56.8,48.2,30.06,West,275,5.7,11.0,73,0.00,CLR,,0.01,WeatherDisplay:10.37,2013-02-17 03:12:00,
2013-02-16 22:17:00,56.7,48.1,30.07,WNW,300,5.9,11.5,73,0.00,CLR,,0.01,WeatherDisplay:10.37,2013-02-17 03:17:00,
2013-02-16 22:22:00,56.6,48.4,30.07,WNW,284,5.4,9.2,74,0.00,CLR,,0.01,WeatherDisplay:10.37,2013-02-17 03:22:00,
2013-02-16 22:27:00,56.4,48.2,30.07,NW,317,6.4,8.1,74,0.00,CLR,,0.01,WeatherDisplay:10.37,2013-02-17 03:27:00,
2013-02-16 22:32:00,56.2,48.0,30.07,WNW,302,6.9,10.4,74,0.00,CLR,,0.01,WeatherDisplay:10.37,2013-02-17 03:32:00,
2013-02-16 22:37:00,56.1,47.9,30.07,NW,309,6.9,11.5,74,0.00,CLR,,0.01,WeatherDisplay:10.37,2013-02-17 03:37:00,
2013-02-16 22:42:00,56.0,47.8,30.07,NW,308,9.4,15.0,74,0.00,CLR,,0.01,WeatherDisplay:10.37,2013-02-17 03:42:00,
2013-02-16 22:47:00,55.9,47.7,30.07,WNW,292,6.7,9.2,74,0.00,CLR,,0.01,WeatherDisplay:10.37,2013-02-17 03:47:00,
2013-02-16 22:52:00,55.8,47.6,30.07,WNW,298,8.5,11.5,74,0.00,CLR,,0.01,WeatherDisplay:10.37,2013-02-17 03:52:00,
2013-02-16 22:57:00,55.6,47.8,30.08,West,269,5.1,13.8,75,0.00,CLR,,0.01,WeatherDisplay:10.37,2013-02-17 03:57:00,
2013-02-16 23:02:00,55.5,47.7,30.08,WNW,286,6.7,9.2,75,0.00,CLR,,0.01,WeatherDisplay:10.37,2013-02-17 04:02:00,
2013-02-16 23:07:00,55.4,47.6,30.08,West,280,7.7,9.2,75,0.00,CLR,,0.01,WeatherDisplay:10.37,2013-02-17 04:07:00,
2013-02-16 23:12:00,55.3,47.5,30.08,NW,313,8.1,11.5,75,0.00,CLR,,0.01,WeatherDisplay:10.37,2013-02-17 04:12:00,
2013-02-16 23:17:00,55.3,47.5,30.08,WSW,252,6.8,12.7,75,0.00,CLR,,0.01,WeatherDisplay:10.37,2013-02-17 04:17:00,
2013-02-16 23:22:00,55.3,47.5,30.08,NW,306,4.4,8.1,75,0.00,CLR,,0.01,WeatherDisplay:10.37,2013-02-17 04:22:00,
2013-02-16 23:27:00,55.1,47.3,30.08,West,281,7.9,8.1,75,0.00,CLR,,0.01,WeatherDisplay:10.37,2013-02-17 04:27:00,
2013-02-16 23:32:00,55.1,47.7,30.08,NW,311,7.5,12.7,76,0.00,CLR,,0.01,WeatherDisplay:10.37,2013-02-17 04:32:00,
2013-02-16 23:37:00,55.0,47.2,30.08,NW,311,9.3,12.7,75,0.00,CLR,,0.01,WeatherDisplay:10.37,2013-02-17 04:37:00,
2013-02-16 23:42:00,55.0,47.6,30.08,NW,311,3.4,5.8,76,0.00,CLR,,0.01,WeatherDisplay:10.37,2013-02-17 04:42:00,
2013-02-16 23:48:00,54.9,47.5,30.08,WNW,294,6.4,11.5,76,0.00,CLR,,0.01,WeatherDisplay:10.37,2013-02-17 04:48:00,
2013-02-16 23:52:00,54.8,47.4,30.08,NW,313,3.7,4.6,76,0.00,CLR,,0.01,WeatherDisplay:10.37,2013-02-17 04:52:00,
2013-02-16 23:58:00,54.8,47.4,30.08,West,271,2.8,8.1,76,0.00,CLR,,0.01,WeatherDisplay:10.37,2013-02-17 04:58:00,